Regional Weather Roundup
Issued by NWS

Home | Current Version | Previous Version | Text Only | Print | Product List | Glossary On
Versions: 1 2 3 4 5 6 7 8 9 10 11 12 13 14 15 16 17 18 19 20 21 22 23 24 25 26 27 28 29 30 31 32 33 34 35 36 37 38 39 40 41 42 43 44 45 46 47 48 49 50
000
ASUS45 KBOU 241807
RWRCO

WEATHER ROUNDUP FOR COLORADO
NATIONAL WEATHER SERVICE DENVER/BOULDER CO
1100 AM MST TUE JAN 24 2017

NOTE: "FAIR" INDICATES FEW OR NO CLOUDS BELOW 12000 FEET WITH NO
SIGNIFICANT WEATHER AND/OR OBSTRUCTIONS TO VISIBILITY.

COZ001>005-013-030-031-241900-
...NORTHWEST COLORADO...

CITY           SKY/WX    TMP DP  RH WIND       PRES   REMARKS
CRAIG          LGT SNOW  24  18  77 CALM      29.68R
HAYDEN         FAIR      21  16  79 W13       29.65R WCI   9
MEEKER         LGT SNOW  24  22  91 SW10      29.66R VSB 3/4 WCI  14
MOUNT WERNER   NOT AVBL
STEAMBOAT SPGS CLOUDY    23  17  78 SW9       29.63R WCI  13
WALDEN           N/A     18  10  73 CALM      29.58R
$$

COZ006>008-011-241900-
...WEST CENTRAL VALLEYS...

CITY           SKY/WX    TMP DP  RH WIND       PRES   REMARKS
GRAND JUNCTION LGT SNOW  30  28  92 W6        29.69R FOG     WCI  24
MONTROSE       CLOUDY    30  25  81 CALM      29.68R
EAGLE          PTSUNNY   30  19  64 CALM      29.65R
RIFLE          CLOUDY    32  26  78 VRB3      29.65R
DELTA          CLOUDY    35  28  78 N3        29.67S
NUCLA          CLOUDY    32  27  80 NW5       29.71R WCI  27
$$

COZ017>023-064>068-241900-
...SOUTHWEST COLORADO...

CITY           SKY/WX    TMP DP  RH WIND       PRES   REMARKS
DURANGO        MIX PCPN  28  20  71 W20       29.66R WCI  15
CORTEZ         SNOW      28  26  92 SW17      29.70R VSB 1/4 WCI  16
PAGOSA SPRINGS FLURRIES  26  20  81 W14G21    29.63S WCI  14
TELLURIDE      NOT AVBL
WOLF CREEK PAS CLOUDY     9   5  85 S22G30    29.56S WCI -11
$$

COZ009-010-012-014-032>034-037-058>063-241900-
...CENTRAL COLORADO...

CITY           SKY/WX    TMP DP  RH WIND       PRES   REMARKS
ASPEN          PTSUNNY   21  17  84 S3        29.58R
BUENA VISTA    FAIR      20   9  62 SE5       29.53F WCI  14
COPPER MTN     SNOW      12   5  73 MISG      29.49R VSB 1/2
BERTHOUD PASS  CLOUDY     5  -6  61 MISG      29.45S
COTTONWOOD PAS FAIR      27   3  36 W13G21    29.51S WCI  16
GUNNISON       FLURRIES  18  13  80 E5        29.61R WCI  11
KREMMLING      NOT AVBL
LEADVILLE      LGT SNOW  14   8  77 N10       29.51S VSB 1   WCI   1
MONARCH PASS     N/A      9   5  85 NW5       29.59S WCI   0
SALIDA         FAIR      25  10  52 W6        29.63S WCI  18
SUNLIGHT       CLOUDY   N/A N/A N/A MISG      29.58R
WILKERSON PASS NOT AVBL
$$

COZ069>075-241900-
...SAN LUIS VALLEY/SANGRE DE CRISTO MOUNTAINS...

CITY           SKY/WX    TMP DP  RH WIND       PRES   REMARKS
ALAMOSA        FAIR      28  21  75 E5        29.56R WCI  23
LA VETA PASS   CLOUDY    21  18  86 NE15G23   29.50S WCI   8
SAGUACHE       CLOUDY    27  18  69 N8        29.56S WCI  18
$$

COZ035-036-038>040-241900-
...NORTHERN COLORADO FRONT RANGE...

CITY           SKY/WX    TMP DP  RH WIND       PRES   REMARKS
DENVER INTL AP CLOUDY    25  22  88 NE20      29.59R FOG     WCI  11
DMNS CITY PARK   N/A     25  25  99 NE9G21    29.60R WCI  16
AURORA         FOG       26  26 100 NE13      29.59R VSB 3/4 WCI  14
FRONT RANGE AP CLOUDY    28  27  93 N14       29.60R FOG     WCI  17
ERIE MUNI ARPT CLOUDY    27  25  91 NE7       29.63R WCI  19
BOULDER MUN AP MIX PCPN  28  27  93 E3        29.61S
CENTENNIAL     SNOW      27  26  96 NE12      29.57R VSB 1/4 WCI  17
BROOMFIELD     LGT SNOW  27  25  93 N13       29.61R VSB 1   WCI  16
FORT COLLINS   CLOUDY    28  25  86 NE16      29.62R FOG     WCI  17
LONGMONT       CLOUDY    29  26  88 E6        29.64R WCI  23
$$

COZ041-046-047-076>085-087-088-241900-
...PIKES PEAK/PALMER DIVIDE AND SOUTHERN FOOTHILLS...

CITY           SKY/WX    TMP DP  RH WIND       PRES   REMARKS
COLO. SPRINGS  PTSUNNY   34  19  54 N25       29.51R WCI  21
A. F. ACADEMY  FAIR      31  19  61 N21       29.50R WCI  18
SCHRIEVER AFB  FAIR      32  20  61 N21G31    29.51R WCI  20
ELLICOTT       FAIR     N/A N/A N/A N23G31    29.49S
FALCON         FAIR      31  20  63 N18G24    29.51S WCI  19
FORT CARSON    PTSUNNY   37  16  43 N12       29.49S
LIMON          FOG       25  25 100 N24       29.54R VSB 1/4 WCI   9
MONUMENT HILL  CLOUDY    28  23  80 N14       29.54S WCI  17
TRINIDAD       PTSUNNY   39  22  50 W26G32    29.50R
$$

COZ042>045-048>051-090-091-241900-
...NORTHEAST COLORADO...

CITY           SKY/WX    TMP DP  RH WIND       PRES   REMARKS
GREELEY ARPT   CLOUDY    27  21  78 NE16      29.65R WCI  15
AKRON          CLOUDY    23  20  88 N18G29    29.58S WCI   9
BURLINGTON     CLOUDY    31  29  92 N17G28    29.51F WCI  19
WRAY           NOT AVBL
STERLING       CLOUDY    28  21  74 N23       29.60F WCI  14
HOLYOKE        CLOUDY    32  28  86 N17       29.58S WCI  21
FORT MORGAN    PTSUNNY   29  19  67 N16G23    29.62S WCI  17
$$

COZ086-089-092>099-241900-
...SOUTHEAST COLORADO...

CITY           SKY/WX    TMP DP  RH WIND       PRES   REMARKS
PUEBLO         CLOUDY    43  24  47 N12       29.51S
LA JUNTA       FAIR      42  30  62 NE14      29.52S
LAMAR          FAIR      41  30  65 N15       29.51S
SPRINGFIELD      N/A     47  29  49 N15       29.47R
$$



USA.gov is the U.S. government's official web portal to all federal, state and local government web resources and services.